[[{"header":{"parameterUnit":"m.s-1","parameterCategory":1,"la1":30.2991,"la2":30.254,"lo1":-89.0895,"lo2":-89.0444,"dy":0.0017,"dx":0.0017,"nx":28,"ny":28,"refTime":"2024-10-07T21:00:00:Z","depth":0,"parameterNumber":2,"parameterNumberName":"U-component_of_WINDS"},"data":[0,0,0,0,0,0,0,0,0,0,0,0,0,0,0,0,0,0,0,0,0,0,0,0,0,0,0,0,0,0,0,0,0,0,0,0,0,0,0,0,0,0,0,0,0,0,0,0,0,0,0,0,0,0,0,0,0,0,-0.222,-0.2219,0,-0.2201,-0.2201,-0.2201,-0.2169,-0.2168,-0.2167,-0.2167,-0.2149,-0.2149,-0.2149,0,0,0,0,0,0,0,0,0,0,0,0,0,-0.2228,-0.2229,-0.222,-0.2219,-0.2219,-0.2201,-0.2201,-0.22,-0.2169,-0.2168,-0.2167,-0.2167,-0.2149,-0.2149,-0.2149,0,0,0,0,0,0,0,0,0,0,0,0,0,-0.2219,-0.2229,-0.222,-0.2201,-0.2199,-0.2201,-0.2201,-0.22,-0.2169,-0.2168,-0.2167,-0.2166,-0.2149,-0.2149,-0.2149,-0.2168,0,0,-0.215,-0.215,0,0,0,0,0,0,0,0,-0.2219,-0.2219,-0.2204,-0.2202,-0.22,-0.2186,-0.2197,-0.219,-0.2169,-0.218,-0.2167,-0.2166,-0.2162,-0.2161,-0.216,-0.2167,-0.2166,-0.215,-0.215,-0.215,-0.215,0,0,0,0,0,0,0,-0.222,-0.2219,-0.2212,-0.2204,-0.2202,-0.2194,-0.2192,-0.2196,-0.2177,-0.2179,-0.2177,-0.2175,-0.2161,-0.216,-0.2159,-0.2166,-0.215,-0.215,-0.215,-0.215,-0.2188,-0.2189,0,0,0,0,0,0,-0.2223,-0.222,-0.2213,-0.2212,-0.2208,-0.2195,-0.2192,-0.2192,-0.2176,-0.2173,-0.2176,-0.2174,-0.216,-0.2159,-0.2158,-0.218,-0.215,-0.215,-0.215,-0.2187,-0.2189,-0.219,0,0,0,0,0,0,-0.2224,-0.2223,-0.2214,-0.2215,-0.2213,-0.2195,-0.2195,-0.2192,-0.219,-0.2174,-0.217,-0.2178,-0.2159,-0.2158,-0.2166,-0.2179,-0.215,-0.215,-0.2186,-0.2188,-0.2189,-0.2223,0,0,0,0,0,0,-0.2224,-0.2223,-0.223,-0.2216,-0.2213,-0.2221,-0.2196,-0.2192,-0.2191,-0.2188,-0.2175,-0.2172,-0.2158,-0.2166,-0.2166,-0.2179,-0.215,-0.2185,-0.2187,-0.2189,-0.2221,-0.2226,-0.223,0,0,0,0,0,-0.2224,-0.2241,-0.2231,-0.223,-0.2222,-0.2222,-0.2221,-0.2205,-0.2192,-0.2199,-0.2188,-0.2172,-0.2177,-0.2167,-0.2167,-0.218,-0.2184,-0.2186,-0.2189,-0.2219,-0.2225,-0.223,0,0,0,0,0,0,-0.2258,-0.2239,-0.2227,-0.2239,-0.2233,-0.2217,-0.2225,-0.2211,-0.2209,-0.2206,-0.2186,-0.2183,-0.2194,-0.2187,-0.2176,-0.2197,-0.2178,-0.218,-0.2202,-0.2207,-0.2211,-0.2213,-0.215,0,0,0,0,0,-0.2267,-0.2269,-0.2251,-0.2264,-0.2261,-0.2244,-0.2243,-0.2231,-0.2224,-0.2221,-0.2211,-0.2204,-0.2204,-0.2205,-0.2204,-0.2219,-0.2217,-0.2228,-0.2232,-0.2236,-0.2239,-0.2247,-0.2253,-0.2197,-0.2197,-0.2197,0,0,-0.2285,-0.2274,-0.2277,-0.227,-0.2264,-0.2267,-0.2242,-0.2246,-0.2248,-0.2221,-0.2229,-0.2221,-0.2212,-0.2224,-0.2229,-0.2219,-0.2253,-0.2239,-0.2242,-0.2243,-0.225,-0.2255,-0.226,-0.2198,-0.2198,-0.2198,0,0,-0.232,-0.2312,-0.2321,-0.2315,-0.2305,-0.2294,-0.2296,-0.2282,-0.2276,-0.2282,-0.2263,-0.2265,-0.2265,-0.226,-0.2258,-0.229,-0.2276,-0.229,-0.2314,-0.2322,-0.2327,-0.2331,-0.2344,-0.2348,-0.2292,-0.2293,-0.2293,0,-0.2344,-0.2348,-0.2328,-0.2334,-0.2331,-0.2307,-0.2317,-0.2312,-0.2302,-0.2302,-0.229,-0.229,-0.2283,-0.2293,-0.2301,-0.23,-0.2302,-0.2292,-0.2328,-0.2331,-0.2335,-0.2347,-0.2352,-0.2294,-0.2294,-0.2294,-0.2294,0,-0.2378,-0.2381,-0.239,-0.2381,-0.238,-0.2387,-0.2369,-0.237,-0.2358,-0.2347,-0.2354,-0.2344,-0.2341,-0.2342,-0.233,-0.2351,-0.2346,-0.2331,-0.2312,-0.2342,-0.2353,-0.2358,-0.2297,-0.2297,-0.2296,-0.2295,0,0,-0.2436,-0.2416,-0.2419,-0.2415,-0.2402,-0.2404,-0.241,-0.2407,-0.2409,-0.2402,-0.2408,-0.2408,-0.2395,-0.2392,-0.2379,-0.2386,-0.2414,-0.2371,-0.237,-0.238,-0.2438,-0.245,-0.2456,-0.2403,-0.2404,-0.2405,-0.2439,0,-0.247,-0.2479,-0.2462,-0.2476,-0.2479,-0.2455,-0.246,-0.2453,-0.2443,-0.2444,-0.2433,-0.2434,-0.2416,-0.2414,-0.242,-0.2409,-0.2425,-0.2406,-0.241,-0.241,-0.2415,-0.2461,-0.2474,-0.2507,-0.2443,-0.2444,-0.2444,0,-0.2511,-0.2506,-0.2521,-0.2507,-0.2507,-0.2513,-0.2508,-0.2509,-0.25,-0.2493,-0.2489,-0.2474,-0.2479,-0.2459,-0.2467,-0.2455,-0.2455,-0.245,-0.245,-0.2452,-0.2431,-0.2466,-0.2517,-0.2523,-0.2451,-0.245,-0.245,0,-0.2553,-0.2551,-0.2559,-0.2556,-0.254,-0.2544,-0.2538,-0.2528,-0.2527,-0.2523,-0.2522,-0.2519,-0.2518,-0.2515,-0.2499,-0.2486,-0.251,-0.2488,-0.2505,-0.2505,-0.2513,-0.2513,-0.2567,-0.2509,-0.2509,-0.2509,-0.2509,0,-0.2594,-0.2604,-0.2578,-0.2584,-0.2595,-0.2574,-0.2585,-0.2576,-0.2568,-0.2571,-0.255,-0.2554,-0.2531,-0.2533,-0.252,-0.253,-0.2529,-0.2523,-0.252,-0.2527,-0.2528,-0.2528,-0.2526,-0.2511,-0.251,-0.251,-0.251,0,-0.2644,-0.2627,-0.2635,-0.2618,-0.2614,-0.2623,-0.2609,-0.2614,-0.2602,-0.2607,-0.2607,-0.2589,-0.2589,-0.2572,-0.257,-0.2561,-0.2577,-0.2569,-0.258,-0.2578,-0.2596,-0.2596,-0.2654,-0.2662,-0.2598,-0.2598,-0.2599,0,-0.2672,-0.2679,-0.2663,-0.2664,-0.2659,-0.266,-0.2659,-0.2638,-0.2638,-0.2628,-0.2634,-0.2633,-0.2631,-0.2634,-0.262,-0.2618,-0.2611,-0.2632,-0.2611,-0.2617,-0.2614,-0.2614,-0.2616,-0.2637,-0.2638,-0.2638,-0.2639,0,-0.2724,-0.2715,-0.2714,-0.271,-0.2709,-0.2705,-0.27,-0.2702,-0.2679,-0.268,-0.268,-0.2679,-0.2676,-0.2676,-0.2671,-0.2664,-0.2649,-0.2645,-0.2649,-0.2657,-0.2664,-0.2662,-0.2594,-0.2645,-0.2644,-0.2644,-0.2643,-0.2643,-0.2766,-0.2771,-0.2761,-0.2761,-0.2754,-0.2749,-0.2753,-0.2741,-0.2741,-0.2737,-0.2725,-0.2728,-0.2718,-0.271,-0.2705,-0.2707,-0.2697,-0.2703,-0.2704,-0.2707,-0.2711,-0.2662,-0.2706,-0.2706,-0.2706,-0.2705,-0.2705,0,-0.2818,-0.281,-0.281,-0.2803,-0.2803,-0.2786,-0.2779,-0.278,-0.2783,-0.2775,-0.2774,-0.2774,-0.2774,-0.276,-0.2758,-0.2762,-0.2755,-0.2762,-0.2763,-0.2762,-0.2719,-0.2717,-0.2768,-0.2768,-0.2768,-0.2768,-0.2768,-0.2768,-0.2846,-0.2855,-0.2845,-0.2851,-0.2842,-0.2845,-0.2842,-0.2838,-0.2832,-0.2833,-0.2833,-0.2823,-0.2813,-0.281,-0.2809,-0.2805,-0.2806,-0.2816,-0.281,-0.2771,-0.2765,-0.2759,-0.2757,-0.2816,-0.2816,-0.2853,-0.2854,-0.2854]},{"header":{"parameterUnit":"m.s-1","parameterCategory":1,"la1":30.2991,"la2":30.254,"lo1":-89.0895,"lo2":-89.0444,"dy":0.0017,"dx":0.0017,"nx":28,"ny":28,"refTime":"2024-10-07T21:00:00:Z","depth":0,"parameterNumber":3,"parameterNumberName":"V-component_of_WINDS"},"data":[0,0,0,0,0,0,0,0,0,0,0,0,0,0,0,0,0,0,0,0,0,0,0,0,0,0,0,0,0,0,0,0,0,0,0,0,0,0,0,0,0,0,0,0,0,0,0,0,0,0,0,0,0,0,0,0,0,0,-2.9474,-2.9475,0,-2.9522,-2.9522,-2.9523,-2.9499,-2.9497,-2.9496,-2.9495,-2.9542,-2.9545,-2.9547,0,0,0,0,0,0,0,0,0,0,0,0,0,-2.9362,-2.9364,-2.9474,-2.9475,-2.9475,-2.9522,-2.9522,-2.9523,-2.9499,-2.9497,-2.9496,-2.9494,-2.9542,-2.9545,-2.9547,0,0,0,0,0,0,0,0,0,0,0,0,0,-2.941,-2.9365,-2.9474,-2.9469,-2.9469,-2.9521,-2.9522,-2.9523,-2.9499,-2.9497,-2.9495,-2.9494,-2.9541,-2.9544,-2.9548,-2.9608,0,0,-2.9559,-2.9561,0,0,0,0,0,0,0,0,-2.9407,-2.9414,-2.9469,-2.9469,-2.9469,-2.9502,-2.95,-2.9551,-2.95,-2.9488,-2.9495,-2.9493,-2.9531,-2.9535,-2.9548,-2.961,-2.9612,-2.9559,-2.9562,-2.9563,-2.9564,0,0,0,0,0,0,0,-2.9404,-2.9412,-2.9493,-2.947,-2.947,-2.9464,-2.9469,-2.951,-2.9519,-2.9488,-2.9487,-2.9493,-2.953,-2.9544,-2.9549,-2.9613,-2.9559,-2.9563,-2.9565,-2.9566,-2.9728,-2.973,0,0,0,0,0,0,-2.9401,-2.9409,-2.9491,-2.9494,-2.9433,-2.9468,-2.9473,-2.9494,-2.9518,-2.952,-2.9494,-2.9492,-2.9539,-2.9545,-2.955,-2.9624,-2.9563,-2.9567,-2.9569,-2.9726,-2.9729,-2.9731,0,0,0,0,0,0,-2.9399,-2.9409,-2.9489,-2.9451,-2.9461,-2.9471,-2.9495,-2.9495,-2.951,-2.9523,-2.9524,-2.9507,-2.9538,-2.9545,-2.9594,-2.9625,-2.9568,-2.9572,-2.9724,-2.9727,-2.973,-2.977,0,0,0,0,0,0,-2.9396,-2.9408,-2.9431,-2.9452,-2.9463,-2.9533,-2.9497,-2.9498,-2.9516,-2.9513,-2.9535,-2.9537,-2.9537,-2.9589,-2.9598,-2.9629,-2.9574,-2.9721,-2.9725,-2.9729,-2.9766,-2.9774,-2.9781,0,0,0,0,0,-2.9392,-2.944,-2.9432,-2.9442,-2.9492,-2.9534,-2.9541,-2.954,-2.9519,-2.9542,-2.9551,-2.9537,-2.962,-2.9594,-2.9604,-2.9637,-2.9719,-2.9724,-2.9729,-2.9762,-2.9772,-2.978,0,0,0,0,0,0,-2.9421,-2.9442,-2.9434,-2.949,-2.9511,-2.953,-2.9559,-2.955,-2.9577,-2.9572,-2.957,-2.9575,-2.9626,-2.9636,-2.9607,-2.9697,-2.9666,-2.9673,-2.9688,-2.9698,-2.9705,-2.9702,-2.9577,0,0,0,0,0,-2.9434,-2.9467,-2.9483,-2.9531,-2.9542,-2.9549,-2.9567,-2.9565,-2.9586,-2.9594,-2.9606,-2.9627,-2.9658,-2.9678,-2.9707,-2.9767,-2.9772,-2.9794,-2.9801,-2.9808,-2.9814,-2.9847,-2.9858,-2.9747,-2.9747,-2.9746,0,0,-2.9461,-2.9477,-2.9498,-2.9538,-2.9553,-2.9587,-2.9557,-2.9593,-2.9619,-2.96,-2.9647,-2.9657,-2.968,-2.9734,-2.9759,-2.9744,-2.9846,-2.9814,-2.9818,-2.9821,-2.9853,-2.9864,-2.9873,-2.975,-2.9749,-2.9749,0,0,-2.9529,-2.9543,-2.9586,-2.9602,-2.9626,-2.9631,-2.9641,-2.9662,-2.9668,-2.9716,-2.9703,-2.9732,-2.9785,-2.9803,-2.9818,-2.9893,-2.9882,-2.9903,-2.9942,-2.9975,-2.9984,-2.9991,-3.0019,-3.0029,-2.9909,-2.9909,-2.9909,0,-2.9559,-2.961,-2.9608,-2.9647,-2.9665,-2.965,-2.9693,-2.9709,-2.9742,-2.9755,-2.9738,-2.9805,-2.9819,-2.9878,-2.9897,-2.9909,-2.9921,-2.99,-2.9982,-2.999,-2.9997,-3.0024,-3.0034,-2.9911,-2.9911,-2.9911,-2.991,0,-2.9647,-2.9683,-2.9714,-2.9747,-2.9768,-2.9809,-2.9814,-2.9836,-2.9832,-2.9838,-2.9887,-2.9904,-2.9937,-2.995,-2.9946,-3.0009,-3.0,-2.9983,-2.9952,-3.0011,-3.0035,-3.0045,-2.9915,-2.9914,-2.9913,-2.9913,0,0,-2.9734,-2.9766,-2.9778,-2.9793,-2.9819,-2.9846,-2.9886,-2.9919,-2.9939,-2.9961,-2.9996,-3.0041,-3.0026,-3.0044,-3.0042,-3.007,-3.013,-3.005,-3.005,-3.0065,-3.0202,-3.0215,-3.0227,-3.0122,-3.0124,-3.0125,-3.02,0,-2.9804,-2.9875,-2.9875,-2.994,-2.9974,-2.996,-2.9995,-3.0015,-3.0022,-3.0052,-3.0059,-3.0092,-3.0069,-3.008,-3.0107,-3.0117,-3.0157,-3.0111,-3.0154,-3.0156,-3.015,-3.024,-3.0254,-3.0324,-3.021,-3.0212,-3.0213,0,-2.9895,-2.9922,-2.9991,-3.0013,-3.0027,-3.0059,-3.009,-3.0118,-3.014,-3.0143,-3.0164,-3.0158,-3.0199,-3.0167,-3.0223,-3.0192,-3.021,-3.0217,-3.022,-3.0224,-3.0188,-3.0248,-3.0346,-3.0357,-3.0228,-3.0227,-3.0225,0,-2.9953,-3.0006,-3.0055,-3.0068,-3.0095,-3.0118,-3.013,-3.0151,-3.0171,-3.0197,-3.021,-3.0241,-3.0258,-3.0282,-3.0284,-3.0261,-3.0342,-3.031,-3.0346,-3.0347,-3.0365,-3.0364,-3.0468,-3.0374,-3.0374,-3.0374,-3.0374,0,-3.0032,-3.0075,-3.0082,-3.0111,-3.0159,-3.0159,-3.0206,-3.0217,-3.0235,-3.0267,-3.0257,-3.0287,-3.0288,-3.0318,-3.032,-3.0368,-3.0375,-3.0379,-3.038,-3.0381,-3.0381,-3.0393,-3.0389,-3.0377,-3.0376,-3.0376,-3.0375,0,-3.0105,-3.0111,-3.0163,-3.0185,-3.0191,-3.0226,-3.0244,-3.0273,-3.0279,-3.032,-3.0329,-3.034,-3.0375,-3.038,-3.0421,-3.0423,-3.048,-3.0475,-3.0473,-3.0473,-3.0509,-3.0506,-3.0626,-3.0642,-3.0537,-3.0538,-3.0539,0,-3.0155,-3.0188,-3.0213,-3.0234,-3.0248,-3.0282,-3.0302,-3.0303,-3.0325,-3.0354,-3.038,-3.0414,-3.0443,-3.05,-3.0511,-3.0543,-3.0539,-3.0579,-3.0544,-3.0545,-3.0541,-3.054,-3.0543,-3.0586,-3.0587,-3.0588,-3.0589,0,-3.0244,-3.0245,-3.0276,-3.0308,-3.0333,-3.0358,-3.0382,-3.04,-3.0404,-3.0429,-3.0466,-3.0488,-3.0531,-3.0566,-3.0598,-3.061,-3.0601,-3.06,-3.061,-3.0612,-3.0611,-3.0613,-3.0493,-3.0597,-3.0596,-3.0596,-3.0595,-3.0595,-3.0307,-3.0337,-3.036,-3.0394,-3.0412,-3.0435,-3.0464,-3.0474,-3.0505,-3.0541,-3.0539,-3.058,-3.0603,-3.0644,-3.0659,-3.0691,-3.0678,-3.0693,-3.0697,-3.0701,-3.0705,-3.0605,-3.0697,-3.0697,-3.0696,-3.0696,-3.0696,0,-3.0397,-3.0411,-3.0443,-3.0477,-3.0505,-3.0493,-3.0519,-3.0543,-3.0579,-3.0601,-3.063,-3.0673,-3.0707,-3.0721,-3.0755,-3.0778,-3.0774,-3.0787,-3.0785,-3.0789,-3.0714,-3.0703,-3.0789,-3.0789,-3.0789,-3.0789,-3.0789,-3.0789,-3.0446,-3.0496,-3.05,-3.0559,-3.0573,-3.0613,-3.0629,-3.065,-3.0668,-3.0717,-3.0746,-3.0755,-3.0774,-3.0809,-3.084,-3.0843,-3.0857,-3.0871,-3.0873,-3.0803,-3.0794,-3.0785,-3.0774,-3.0874,-3.0874,-3.0945,-3.0945,-3.0946]}]]